CAPE
1307 1582 2107 2145 2284 2412 2463 2476 2239 1317 1401 1199 1438 2091 2155 2165 2394 2450 2628 2663 2350 2136 1860 1784 1289 1307 1260 1554 1676 1150 1129 919 643 463 344 388 295 241 215 40 0 0 1
2412 2197 1966 1973 2006 1904 1650 999 856 1707 2007 2371 2542 2676 2766 2792 2667 2637 2698 2778 2528 2346 2129 1675 1411 1466 1432 1340 1042 786 372 90 23 61 335 494 398 111 68 9 0 24 418
1522 1796 1726 1768 1913 1955 1829 1712 1612 1767 2108 2494 2916 3078 2845 2840 3011 3061 2939 2826 2590 2499 2298 1760 1574 1447 1186 986 748 286 214 196 303 486 507 205 193 33 13 2 115 133 34
0 31 106 89 42 43 70 135 301 674 892 873 1043 1672 2558 2963 2613 2636 2930 2815 2747 2543 2257 1908 1757 1558 1307 942 498 170 47 163 373 331 184 108 54 16 1 9 47 11 9
0 0 0 0 0 0 0 11 30 55 77 239 926 1155 957 1496 2604 2689 2586 2602 2670 2464 2304 2042 1574 1184 898 515 213 47 53 248 272 192 113 79 81 69 62 3 7 1 2
0 0 0 0 0 0 0 0 0 0 0 83 140 346 1109 1270 909 1317 1968 2577 2401 2136 1991 1432 1049 880 545 251 74 60 14 189 276 224 85 104 29 0 0 0 0 1 0
0 0 0 0 0 0 0 0 0 0 0 0 6 154 353 1037 1058 836 1483 2199 1925 1914 1612 1354 946 578 270 35 21 18 23 128 160 183 112 30 2 0 0 0 0 0 0
0 0 0 0 0 0 0 0 0 0 0 0 0 4 190 298 600 909 1223 1849 1854 1585 1497 1318 828 378 70 9 10 0 0 1 19 30 17 1 0 0 0 0 0 0 0
0 0 0 0 0 0 0 0 0 0 0 0 0 0 45 288 165 580 1134 1698 1836 1432 1197 1075 860 447 57 0 0 0 0 0 0 0 0 0 0 0 0 0 0 0 0
0 0 0 1 0 0 0 0 1 0 0 1 1 0 0 78 228 465 793 1234 1319 1199 1075 836 726 563 52 0 0 0 0 0 0 0 0 0 0 0 0 0 0 0 0
0 0 0 0 0 0 1 0 0 0 0 3 0 0 1 253 501 462 482 596 927 808 676 669 446 229 81 3 0 0 0 0 0 0 0 0 0 0 0 0 0 0 0
0 0 0 0 0 0 0 0 0 1 0 0 20 38 0 0 39 192 246 277 361 264 109 83 21 0 0 0 0 0 0 0 0 0 0 0 0 0 0 0 0 0 0
0 0 0 0 0 1 0 0 0 0 0 3 1 1 1 3 2 0 29 30 1 0 0 2 0 0 0 0 0 0 0 0 0 0 0 0 0 0 0 0 0 0 0
0 0 0 0 1 2 0 0 0 0 0 1 1 2 3 1 0 2 2 1 0 1 0 0 0 0 0 0 0 0 0 0 0 0 0 0 0 0 0 0 0 0 0
0 0 0 0 0 1 3 0 1 0 0 1 1 0 0 0 0 0 1 3 2 0 0 0 0 0 0 0 0 0 0 0 0 0 0 0 0 0 0 0 0 0 0
0 0 0 0 0 0 0 0 0 0 0 0 0 0 0 0 0 0 0 0 0 0 0 0 0 0 0 0 0 0 0 0 0 0 0 0 0 0 0 0 0 0 0
0 0 0 0 0 0 0 0 0 0 0 0 0 0 0 0 0 0 0 0 7 4 0 0 0 0 0 0 0 0 0 0 0 0 0 0 0 0 0 0 0 0 0
0 0 0 0 0 0 0 0 0 0 0 0 0 0 0 0 0 0 0 0 0 1 8 6 7 8 14 30 12 9 5 0 0 0 0 0 0 0 0 0 0 0 0
0 0 0 0 0 0 0 0 0 0 0 0 0 0 0 0 0 0 0 0 0 0 1 10 3 4 1 12 21 16 18 15 0 0 0 0 0 0 0 0 0 0 0
0 0 0 0 0 0 0 0 0 0 0 0 0 0 0 0 0 0 1 5 2 7 7 28 0 0 7 30 32 36 37 0 1 0 0 0 0 0 0 0 0 0 0
4 0 0 0 0 0 0 0 0 0 0 0 0 0 0 0 0 0 0 3 7 28 16 25 32 32 27 18 40 17 12 0 0 0 0 0 0 0 0 0 0 0 0
26 9 1 0 0 2 1 0 0 0 0 0 1 0 0 0 0 0 0 0 2 6 20 26 21 14 39 41 51 41 27 13 5 4 0 0 0 0 0 0 0 0 0
24 41 49 32 11 8 18 0 2 0 1 0 8 20 18 11 13 2 6 12 10 4 6 16 28 58 32 30 19 17 10 6 1 1 0 0 1 0 0 1 2 2 0
30 32 62 48 36 14 13 6 9 7 17 19 14 13 7 6 12 15 15 10 11 28 24 25 21 14 26 25 20 2 4 1 2 4 4 4 3 5 2 0 0 0 0
0 0 8 19 0 0 1 0 0 7 8 6 11 14 14 34 34 22 26 43 47 61 63 52 27 5 19 15 7 3 0 0 2 0 0 0 0 0 0 0 0 0 0
0 0 2 4 0 0 7 0 1 10 19 5 0 3 3 1 24 22 2 8 15 8 15 16 13 26 23 19 0 0 0 0 0 0 0 0 0 0 0 0 0 0 0
CIN
-311 -283 -196 -139 -119 -103 -89 -80 -95 -209 -215 -230 -192 -121 -114 -107 -105 -111 -85 -57 -55 -49 -62 -44 -52 -40 -19 -35 -38 -43 -47 -54 -37 -88 -99 -73 -84 -81 -101 -189 0 0 -20
-171 -139 -124 -137 -133 -139 -156 -257 -295 -182 -160 -119 -109 -106 -94 -91 -86 -95 -94 -61 -38 -39 -42 -39 -37 -28 -47 -72 -85 -86 -138 -191 -185 -137 -80 -53 -45 -109 -119 -72 0 -77 -9
-257 -205 -193 -179 -155 -141 -164 -176 -189 -181 -152 -117 -91 -86 -103 -91 -49 -38 -37 -45 -39 -32 -36 -25 -29 -37 -86 -104 -119 -184 -177 -139 -85 -25 -15 -85 -58 -129 -128 -52 -33 -29 -56
0 -292 -511 -560 -534 -235 -228 -214 -420 -342 -325 -336 -296 -190 -102 -66 -83 -68 -29 -27 -27 -27 -27 -27 -31 -61 -78 -95 -165 -238 -311 -152 -57 -24 -69 -47 -96 -120 -5 -21 -33 -51 -82
0 0 0 0 0 0 0 -598 -612 -585 -561 -471 -298 -256 -280 -169 -29 -17 -24 -17 -19 -21 -25 -37 -69 -97 -138 -203 -282 -354 -303 -143 -91 -87 -78 -50 -25 -67 -43 -47 -52 0 0
0 0 0 0 0 0 0 0 0 0 0 -557 -517 -413 -192 -150 -211 -103 -21 -13 -28 -31 -33 -75 -110 -128 -198 -296 -378 -331 -347 -165 -115 -122 -99 -60 -68 0 0 0 0 0 -56
0 0 0 0 0 0 0 0 0 0 0 0 -550 -478 -383 -155 -132 -153 -39 -10 -40 -38 -56 -60 -83 -157 -232 -377 -420 -337 -282 -182 -155 -122 -100 -136 -89 0 0 0 0 0 0
0 0 0 0 0 0 0 0 0 0 0 0 0 -166 -460 -421 -226 -106 -47 -14 -27 -49 -57 -65 -96 -149 -245 -348 -359 0 0 -43 -256 -230 -224 -64 0 0 0 0 0 0 0
0 0 0 0 0 0 0 0 0 0 0 0 0 0 -623 -404 -466 -212 -36 -18 -10 -38 -64 -78 -79 -121 -206 0 0 0 0 0 0 0 0 0 0 0 0 0 0 0 0
0 0 0 -1 0 0 0 0 0 0 0 0 0 0 0 -537 -426 -262 -87 -13 -12 -24 -49 -72 -78 -90 -157 0 0 0 0 0 0 0 0 0 0 0 0 0 0 0 0
0 0 0 0 0 0 0 0 0 0 0 0 0 0 -163 -366 -212 -220 -169 -82 -13 -38 -68 -66 -107 -123 -131 -50 0 0 0 0 0 0 0 0 0 0 0 0 0 0 0
0 0 0 0 0 0 0 0 0 0 0 0 -457 -422 -42 -15 -285 -315 -219 -168 -80 -102 -171 -207 -155 0 0 0 0 0 0 0 0 0 0 0 0 0 0 0 0 0 0
0 0 0 0 0 0 0 0 0 0 0 0 0 0 0 0 0 0 -341 -336 -34 -8 0 0 0 0 0 0 0 0 0 0 0 0 0 0 0 0 0 0 0 0 0
0 0 0 0 0 0 0 0 0 0 0 0 0 0 0 0 0 0 0 0 0 0 0 0 0 0 0 0 0 0 0 0 0 0 0 0 0 0 0 0 0 0 0
0 0 0 0 0 0 0 0 0 0 0 0 0 0 0 0 0 0 0 0 0 0 0 0 0 0 0 0 0 0 0 0 0 0 0 0 0 0 0 0 0 0 0
0 0 0 0 0 0 0 0 0 0 0 0 0 0 0 0 0 0 0 0 0 0 0 0 0 0 0 0 0 0 0 0 0 0 0 0 0 0 0 0 0 0 0
0 0 0 0 0 0 0 0 0 0 0 0 0 0 0 0 0 0 0 0 -12 -10 0 0 0 0 0 0 0 0 -75 0 0 0 0 0 0 0 0 0 0 0 0
0 0 0 0 0 0 0 0 0 0 0 0 0 0 0 0 0 0 0 0 0 -21 -31 -27 -23 -29 -34 -26 -36 -39 -33 0 0 0 0 0 0 0 0 0 0 0 0
0 0 0 0 0 0 0 0 0 0 0 0 0 0 0 0 0 0 0 0 0 0 -29 -49 -47 -21 -53 -49 -46 -32 -26 -31 0 0 0 0 0 0 0 0 0 0 0
0 0 0 0 0 0 0 0 0 0 0 0 0 0 0 0 0 -25 -35 -36 -29 -15 -33 -19 0 0 -54 -54 -50 -35 -52 0 -23 0 0 0 0 0 0 0 0 0 0
-72 0 0 0 0 0 0 0 0 0 0 0 0 0 0 0 0 0 0 -48 -29 -34 -26 -32 -38 -31 -36 -39 -49 -48 -55 -3 0 0 0 0 0 0 0 0 0 0 0
-36 -47 -20 0 0 -45 -29 0 0 0 0 -28 -23 0 0 0 0 0 0 0 -39 -64 -69 -62 -61 -64 -38 -36 -36 -32 -38 -46 -31 -40 0 0 0 0 0 0 0 0 0
-36 -34 -30 -37 -57 -67 -66 0 -69 -84 -50 0 -89 -71 -72 -86 -93 -45 -78 -95 -125 -90 -107 -105 -80 -43 -70 -56 -69 -53 -37 -37 -27 -18 -22 0 -27 -3 -9 -28 -22 -18 0
-39 -28 -28 -29 -25 -32 -41 -37 -63 -64 -72 -63 -60 -59 -69 -76 -59 -69 -87 -85 -81 -57 -93 -81 -59 -62 -58 -38 -41 -71 -77 -32 -70 -62 -65 -52 -32 -59 -55 0 0 0 0
0 0 -38 -33 0 0 -11 -3 0 -43 -45 -39 -33 -42 -23 -54 -49 -55 -64 -50 -43 -35 -31 -50 -41 -44 -35 -37 -57 -81 0 0 -68 0 0 0 0 0 0 0 0 0 0
0 0 -34 -30 0 0 -21 0 -16 -25 -28 -12 0 -40 -36 -33 -35 -49 -35 -63 -53 -59 -59 -57 -38 -42 -47 -64 0 0 0 0 0 0 0 0 0 0 0 0 0 0 0
Wind_Speed
2 4 4 5 6 9 12 15 16 16 15 16 16 15 15 17 21 21 19 21 21 20 20 19 17 18 20 15 16 17 18 20 25 25 28 25 32 30 23 19 21 24 27
10 8 8 12 14 16 20 22 20 21 21 20 18 18 19 20 25 25 23 21 19 21 20 20 18 18 14 14 17 20 21 24 26 23 31 31 34 29 22 20 22 25 24
14 15 16 19 20 20 22 23 23 26 27 29 29 28 28 30 31 29 27 25 22 18 17 19 20 16 15 14 16 21 21 24 20 26 31 31 30 24 21 19 18 15 14
18 19 21 22 24 25 27 27 29 30 33 36 37 37 36 34 33 32 30 28 25 21 17 18 19 15 14 14 18 20 22 15 7 11 24 22 21 23 8 8 11 17 16
23 23 25 26 25 27 29 31 33 35 37 39 41 41 41 41 38 35 33 29 27 24 19 16 16 16 16 16 19 20 17 13 10 9 16 17 15 12 8 8 9 7 11
23 25 26 28 31 34 36 38 40 41 42 42 42 42 42 40 37 38 37 31 25 23 19 18 16 15 17 17 17 15 14 16 13 15 13 10 9 11 8 7 7 7 8
26 28 30 33 35 36 37 39 40 41 43 44 44 43 42 40 41 40 37 30 24 19 18 17 16 16 15 16 14 13 14 15 13 12 10 8 8 7 6 6 8 8 9
28 30 32 34 36 37 38 39 41 41 42 42 42 42 41 40 40 41 38 28 21 19 16 14 14 13 12 11 11 11 13 13 13 13 11 10 10 7 6 7 7 7 9
29 31 32 34 36 38 40 40 40 41 42 42 41 40 37 39 41 40 34 25 19 17 16 14 12 11 9 7 7 8 9 10 12 10 9 9 9 10 9 7 7 6 10
29 30 31 33 37 38 40 41 40 40 41 41 41 36 35 36 35 33 27 21 18 18 17 15 11 10 7 5 5 6 7 5 5 6 7 8 9 10 10 9 7 8 9
27 29 31 33 36 37 38 38 40 39 40 39 37 36 33 31 27 26 21 20 20 18 18 17 15 11 9 8 5 4 4 1 4 5 6 6 7 9 10 11 11 9 10
28 30 32 32 34 35 37 38 38 36 37 37 33 32 28 27 24 21 17 19 20 18 18 16 12 10 9 8 7 5 2 1 2 3 4 5 5 7 10 11 11 12 12
28 29 30 31 32 34 36 37 37 35 33 32 29 28 27 25 23 22 19 19 21 15 14 13 16 12 11 8 6 5 3 0 1 1 2 5 6 7 8 10 11 11 11
27 28 29 30 31 32 34 34 35 35 32 30 29 27 26 25 24 21 19 17 15 13 10 10 11 10 10 6 3 4 4 2 2 3 6 10 6 8 9 11 11 11 13
24 26 27 27 28 29 31 33 33 32 30 28 27 26 25 25 24 21 19 17 14 11 9 10 10 12 10 6 6 4 5 6 7 9 7 6 7 8 10 11 10 8 9
21 23 24 25 27 28 29 30 31 30 29 28 27 24 23 22 22 21 19 17 14 11 11 11 12 10 8 6 7 10 8 6 6 4 5 7 8 9 9 11 10 9 9
17 19 21 23 25 27 28 30 32 31 32 30 26 25 24 21 19 20 22 17 16 13 12 12 11 9 8 9 9 12 12 9 10 9 13 12 10 10 8 10 10 10 9
13 15 18 20 22 23 25 27 29 32 33 32 29 25 24 23 21 19 18 18 15 15 14 13 12 12 11 11 7 6 5 7 11 13 11 11 9 7 11 10 11 13 15
9 12 15 17 18 20 21 23 26 29 31 33 32 28 24 23 22 20 18 17 16 16 15 14 11 11 10 11 11 11 12 13 11 9 10 12 12 12 14 13 16 17 18
6 9 11 14 16 17 18 19 21 23 26 27 28 27 27 26 23 21 19 17 17 15 14 13 11 9 9 12 11 10 13 13 13 13 12 14 13 13 13 16 17 19 17
7 8 8 11 12 12 13 14 16 19 20 20 21 21 21 22 23 21 19 17 16 15 13 12 13 12 12 9 7 9 10 11 11 11 11 11 13 16 17 19 20 19 17
8 8 7 7 8 8 8 9 10 11 11 12 10 10 9 9 7 7 12 16 16 16 16 15 15 15 9 10 9 10 12 12 14 14 14 16 18 17 15 14 16 17 18
5 6 8 7 7 6 7 9 8 8 8 8 9 9 9 8 9 10 8 8 10 14 15 16 16 18 19 17 16 17 13 8 8 9 7 7 9 12 14 16 18 20 21
4 5 6 6 6 8 7 8 8 9 9 9 9 8 7 6 7 6 7 8 10 12 12 12 12 14 13 12 11 10 10 10 11 12 12 12 12 14 17 20 23 24 26
3 4 6 6 7 9 10 10 10 9 9 9 8 9 7 6 7 9 9 9 10 12 11 12 13 12 10 10 9 10 9 10 10 13 16 16 18 21 25 26 27 26 25
4 4 5 6 9 10 10 10 10 9 9 8 7 7 6 8 8 8 8 8 10 10 10 10 9 9 8 8 7 8 10 10 12 14 17 21 24 27 26 24 24 24 23
Wind_Direction
270 293 295 285 293 308 315 309 307 307 306 310 313 309 309 311 313 310 303 303 297 293 290 291 285 296 308 316 316 317 319 318 313 315 315 315 299 290 288 288 286 285 282
325 323 322 325 325 323 323 321 317 314 316 317 317 314 314 314 315 313 307 302 294 292 288 289 290 298 306 315 314 316 319 320 318 310 312 307 289 289 290 291 288 284 285
346 340 337 333 332 329 330 329 326 321 319 318 318 317 314 313 311 310 308 303 296 286 284 285 293 293 298 307 315 318 324 327 327 318 306 304 294 297 294 293 294 291 297
346 341 334 331 328 325 323 321 319 318 315 312 312 311 312 311 309 308 305 301 296 291 284 285 291 287 292 304 315 324 330 342 354 346 321 320 315 310 301 297 311 285 288
331 332 330 329 329 326 322 320 316 314 312 311 309 309 309 307 307 305 303 299 293 288 287 284 290 291 300 307 315 325 333 344 353 4 340 326 321 345 341 338 343 358 339
333 330 330 328 324 319 318 316 314 312 312 311 310 309 308 307 305 301 300 298 291 286 281 285 290 290 297 306 316 325 331 334 344 345 359 17 349 335 348 1 43 8 358
330 328 326 321 319 318 318 317 315 313 312 310 309 308 306 306 303 301 299 296 289 280 275 278 282 287 294 303 311 316 323 323 334 345 359 16 16 24 14 356 333 337 335
330 327 324 322 321 320 319 318 317 316 315 314 312 308 305 303 301 298 295 294 287 279 269 270 272 277 288 298 309 318 324 319 318 325 338 345 353 26 25 1 353 345 336
330 329 327 326 324 323 322 321 320 318 317 315 314 312 308 304 297 296 297 292 282 277 273 267 266 270 275 285 300 315 324 323 327 338 354 6 15 4 13 19 350 338 313
336 335 334 331 327 326 325 324 323 322 319 316 315 316 313 309 303 300 298 292 280 279 276 272 255 264 246 247 283 302 310 317 340 350 3 6 5 359 359 12 10 327 320
341 339 337 336 334 334 332 331 327 325 323 320 319 318 318 317 311 308 304 299 291 283 276 269 264 241 229 225 249 267 292 319 321 327 339 350 348 350 351 355 351 343 319
343 341 340 341 340 339 337 335 332 335 330 323 323 323 328 327 325 323 315 307 302 295 286 279 256 227 225 215 228 246 253 324 334 320 323 330 347 351 342 343 345 341 332
344 344 345 345 345 345 342 341 340 338 338 337 337 334 333 337 338 330 322 316 312 302 300 295 277 252 243 217 218 214 194 297 90 14 328 314 334 348 350 350 342 345 351
347 348 348 348 349 351 351 350 347 343 340 340 339 337 337 337 337 333 332 332 332 328 331 295 299 323 240 249 188 216 258 255 233 282 291 301 311 320 328 327 326 322 315
357 356 355 356 357 357 358 358 360 0 1 355 351 348 344 342 341 341 339 340 338 328 316 318 305 303 298 323 350 322 294 287 275 287 281 288 297 310 317 319 327 344 336
2 1 3 6 6 5 5 6 10 10 10 9 7 5 6 7 9 5 359 352 352 346 329 311 302 303 312 312 300 303 332 320 325 296 289 288 298 302 314 319 321 330 328
8 8 10 9 10 11 12 13 12 9 8 8 10 8 6 5 5 4 5 3 347 337 329 321 319 307 319 313 313 304 286 312 299 288 274 287 304 298 309 313 324 324 322
18 20 17 16 17 18 19 19 16 15 12 9 8 10 7 3 357 354 353 356 350 350 343 335 325 321 321 316 309 315 339 329 304 285 295 297 305 309 305 314 309 311 302
31 24 23 21 21 20 19 20 22 23 24 22 21 21 14 12 4 355 350 349 341 337 335 339 337 334 331 321 311 310 306 304 305 307 307 302 302 306 306 313 306 302 296
41 24 22 16 17 16 20 24 25 24 28 31 35 38 37 14 8 8 1 343 339 332 328 338 335 350 342 318 326 326 312 316 309 303 307 302 311 315 315 307 305 299 305
19 22 25 20 20 27 33 38 34 30 31 38 47 50 52 55 38 351 346 340 331 318 333 334 333 311 321 324 8 7 353 348 335 329 322 321 312 305 305 302 301 308 316
3 11 27 29 38 54 59 59 48 54 67 80 105 123 135 140 161 184 251 299 310 284 306 339 326 314 338 348 345 347 333 330 315 307 308 304 302 307 323 327 323 320 319
10 12 12 40 54 56 60 62 103 134 141 129 116 109 113 111 104 105 128 152 183 199 204 237 253 241 198 173 181 170 146 86 50 34 28 14 351 338 333 329 325 320 318
17 23 26 44 62 41 78 129 116 126 129 145 145 135 135 139 136 129 131 158 155 154 160 170 166 123 102 97 96 89 72 40 13 9 2 349 340 333 328 324 320 317 315
59 53 12 55 57 99 81 100 107 108 115 129 133 89 109 105 111 120 116 130 123 117 142 134 104 116 99 77 65 49 41 19 9 355 349 344 334 327 323 321 320 319 320
40 61 88 85 120 135 108 114 124 124 120 129 117 85 115 70 91 93 105 109 113 116 110 95 90 67 60 60 64 51 37 29 13 358 347 336 329 326 327 327 325 325 323